STARLINK-11562, 62918

Orbit data source: Space-Track

STARLINK-11562, 62918 is a payload satellite owned by SpaceX/Seattle (US) in LEO that was launched on Sat, 08 Feb 2025 UTC via an FALCON 9 launch vehicle from the Air Force Eastern Test Range (AFETR). Payload-class satellites include a variety of spacecraft equipped with specific instruments for various scientific and technological missions. These include communications satellites like Starlink; space stations such as the ISS; scientific satellites like the Hubble; Earth observation satellites from companies like Planet Labs, Umbra, and HawkEye 360; GPS; miniature CubeSats for education and research; and military/defense satellites.

Loading next visibility...
Identifier
62918, 2025-027M
Orbit
LEO
Last TLE update
6 hours ago
Origin
Manufacturer
SpaceX/Seattle
Mission
Operational Commercial Communications
Bus & Motor
STARLINK V2M, Unknown motor
Mass
730 kg wet, ~700 kg dry
Launch date (UTC)
2025-02-08 (5 months ago)
Launch vehicle
FALCON 9
Launch site
Air Force Eastern Test Range (AFETR)
Object type
Payload
Rocket body
Debris
Shape & HBR
Box + 2 Pan, 29 m
Radar Cross Section
36.964 m², Large (>1 m²)

Expand to show TLE details & history

TLE from 6 hours ago
0 STARLINK-11562
1 62918U 25027M   25181.89669829  .00190553  00000-0  14528-2 0  9991
2 62918  43.0004  65.2057 0002467 288.9642  71.0958 15.70870435 23591
Epoch: 2025-06-30T21:31Z
TLE epoch observation values (Epoch: 2025-06-30T21:31:14.732Z)
Latitude
-0.00002°
Longitude
-176.80563°
Altitude
355.641 km
Speed
7.698 km/s
True Right ascension
04h 20m 49s
True Declination
0° 00' 00"
Sunlit
Object was in daylight at epoch
Visualization orbit readout
Latitude
-29.98167°
Longitude
39.76859°
Altitude
363.413 km
Speed
7.692 km/s
Apparent Right ascension
22h 10m 21s
Apparent Declination
-53° 09' 58"
Sunlit
Object is in full shadow
Visualization observer readout
Local Sidereal Time
14:40:48
Azimuth
130.136° SE
Elevation
-43.527°
Doppler factor
1
Orbital elements
Apogee altitude
360.052 km
Perigee altitude
356.728 km
Semi-major axis
6,736.527 km
Eccentricity
0.00025
Inclination
43.0004°
RAAN
65.2057°
Arg. of periapsis
288.9642°
True anomaly
Unknown
Mean anomaly
71.0958°
Eccentric anomaly
Unknown
Mean motion
3.92545 °/min
Orbital period
91.71 mins
BSTAR
0.0014528
Loading maneuver chart data...
Loading SW <> Apogee altitude chart data...
Loading historical data...
Loading historical data...
Loading historical data...
Loading historical data...
Loading historical data...
Loading historical data...
Loading historical data...

STARLINK-11562 Visibility forecast

Observer location: undefined°, undefined°

Span
Click to sort rows by Start time (UTC) header in descending order
Start Az.
Max El. time (UTC)
Max El. Az.
Max El.
End time (UTC)
End Az.
4 mins2025-07-01 20:41:34.582Z261.244° W2025-07-01 20:42:34.582Z296.964° NW43.739°2025-07-01 20:45:34.582Z70.412° E
4 mins2025-07-01 22:17:34.582Z300.512° NW2025-07-01 22:18:34.582Z332.645° NNW32.331°2025-07-01 22:21:34.582Z73.004° E
4 mins2025-07-01 23:53:34.582Z289.833° WNW2025-07-01 23:55:34.582Z95.634° ESE42.998°2025-07-01 23:57:34.582Z106.626° ESE
|